Temp
7 7 6 6 6 6 5 6 4 3 4 4 4 4 4 3 2 3 3 2 1 1 1 1 0 -1 -1 -2 -2 -2 -1 -1 -1 -1 -1 -0 -0 -1 -1 -0 1 1 1 1
6 6 6 6 6 5 5 6 5 4 4 4 4 5 4 4 3 3 3 2 2 1 1 0 0 -1 -2 -2 -2 -2 -1 -1 -1 -1 -0 -1 -0 -1 -1 -0 -0 1 1 1
6 6 6 5 6 5 5 5 5 4 5 4 3 5 4 4 3 3 3 3 3 2 1 0 -0 -0 -1 -2 -2 -3 -2 -1 -0 -0 -1 -1 -0 0 -1 -1 -0 0 0 1
6 5 5 5 5 5 5 4 4 5 4 2 2 1 4 4 3 3 3 2 2 2 2 1 0 -0 -1 -2 -2 -3 -3 -3 -1 -1 -1 -1 -1 -1 -2 -1 -1 -1 -0 0
5 5 5 5 5 4 4 3 4 4 3 2 2 -1 5 4 2 2 3 2 2 2 1 1 0 -0 -1 -2 -2 -3 -3 -2 -1 -0 -0 -1 -1 -1 -1 -1 -1 -1 -1 -0
5 5 5 4 4 4 4 3 3 2 2 -3 2 0 5 5 4 3 3 2 2 2 2 1 0 -0 -1 -2 -3 -3 -3 -3 -2 -1 -1 -1 -1 -2 -1 -1 -2 -1 -1 -1
4 5 4 4 4 4 3 4 1 -2 -3 -3 2 2 6 5 4 3 3 2 2 2 2 1 1 0 -1 -2 -2 -3 -2 -3 -2 -1 -1 -1 -2 -1 -1 -2 -1 -1 -1 -1
4 4 4 4 4 3 3 2 1 -2 -3 -3 3 3 6 5 4 3 3 3 2 2 2 1 1 0 -1 -2 -2 -2 -2 -2 -2 -0 -0 -0 -1 -1 -1 -1 -1 -1 -1 -2
4 4 4 4 3 3 2 2 2 2 -1 -2 3 5 6 5 4 4 3 3 2 2 2 1 1 1 -0 -1 -2 -2 -2 -2 -1 -0 -0 0 -0 -0 0 -0 -1 -1 -2 -1
3 3 3 3 3 2 2 2 1 1 -4 -4 3 4 6 5 5 4 3 3 3 2 2 2 1 1 -0 -1 -1 -1 -1 -1 -1 -0 0 1 2 0 1 0 -0 -1 -1 -2
3 2 2 2 3 3 2 2 1 1 0 -5 -5 3 5 5 5 4 3 2 2 2 2 2 2 1 0 -0 -0 -0 -0 -0 -0 -1 0 1 1 1 1 0 0 -0 -1 -1
2 2 2 2 2 2 2 1 1 1 -0 -1 -0 3 5 5 4 4 3 3 2 2 2 2 2 2 1 1 0 0 0 0 1 1 1 1 1 1 1 0 1 1 1 -1
2 1 2 2 1 2 2 2 1 1 0 0 -2 4 5 5 4 4 3 3 3 2 2 2 2 2 2 2 2 1 1 1 1 1 1 1 1 2 2 1 2 1 1 0
0 1 1 2 2 2 2 2 2 1 0 2 2 4 6 4 4 4 4 3 3 3 2 3 3 2 3 2 2 2 2 2 2 2 2 2 2 2 2 2 2 1 1 1
-1 -1 0 1 1 1 1 2 2 1 2 1 4 4 7 6 5 5 5 4 4 4 3 3 3 3 3 3 3 3 3 3 3 2 2 2 2 2 2 2 2 2 1 1
-1 -1 -1 0 1 0 1 1 2 2 2 3 3 5 6 5 5 6 6 5 5 4 4 4 3 3 3 3 3 3 3 3 3 3 3 2 2 2 2 3 2 2 1 0
-1 -1 -2 -1 -0 -1 1 4 4 4 3 3 3 7 5 5 5 6 6 5 5 5 4 4 4 3 3 3 3 3 3 3 3 3 3 3 3 3 3 2 2 2 1 1
-1 -1 -2 -3 -2 -4 3 3 3 4 4 5 5 6 5 5 5 6 6 5 5 5 4 4 4 4 3 3 3 3 3 3 3 3 3 3 3 3 3 3 2 2 1 1
-1 -2 -2 -3 -3 -0 2 3 4 4 5 5 6 6 6 5 6 6 5 5 5 5 4 4 4 4 3 3 3 3 3 3 3 3 3 3 3 3 3 3 2 2 2 2
-2 -2 -2 -4 -4 -5 2 3 3 3 4 5 5 5 6 6 6 6 5 5 5 4 4 4 4 4 4 3 3 3 3 3 3 3 3 3 3 3 3 3 3 3 2 2
-3 -3 -3 -3 -4 -2 1 3 3 2 4 4 5 5 5 6 5 5 5 5 4 4 4 4 3 3 3 3 3 3 3 2 2 2 2 3 3 3 3 2 2 2 2 2
-0 -2 -3 -4 -6 -4 3 1 1 3 3 3 3 4 4 5 5 5 5 4 4 4 3 3 3 3 3 3 2 3 3 2 2 2 2 2 2 2 2 2 2 2 2 2
-1 -0 1 -0 1 2 3 3 3 2 2 1 2 3 3 4 4 4 4 4 3 3 3 3 2 2 2 2 2 2 2 2 2 2 2 2 2 2 1 2 2 2 2 2
-1 -1 -0 -0 0 1 1 2 3 2 2 1 1 2 2 2 3 3 3 3 3 2 2 2 2 2 2 2 1 1 1 1 1 1 1 1 1 1 1 1 1 1 1 1
-2 -2 -1 -1 -0 -0 1 1 1 1 0 1 1 1 1 2 2 3 3 3 2 2 2 2 1 1 1 2 1 1 1 1 1 1 1 1 1 1 1 1 1 1 1 1
-2 -1 -1 0 1 -0 -1 -1 -2 -1 -1 -0 -0 0 1 1 1 2 2 2 2 2 2 2 1 1 1 1 1 1 1 1 1 1 1 1 1 0 0 0 0 0 0 0
Height
3136 3137 3136 3135 3134 3134 3132 3131 3130 3129 3124 3122 3119 3116 3114 3112 3110 3107 3103 3100 3097 3093 3088 3085 3081 3076 3071 3067 3064 3061 3059 3058 3059 3059 3060 3060 3061 3063 3065 3068 3071 3075 3081 3085
3137 3135 3135 3135 3134 3133 3130 3129 3129 3127 3125 3122 3117 3113 3110 3109 3107 3105 3102 3099 3095 3091 3087 3081 3077 3074 3069 3064 3060 3057 3054 3053 3053 3054 3055 3056 3057 3058 3062 3065 3064 3069 3071 3079
3134 3135 3134 3134 3133 3131 3129 3128 3128 3127 3123 3121 3116 3109 3108 3107 3104 3103 3101 3098 3094 3090 3086 3082 3077 3072 3068 3062 3058 3053 3049 3046 3047 3048 3050 3052 3053 3055 3058 3059 3062 3062 3069 3078
3133 3133 3133 3133 3132 3131 3129 3127 3126 3124 3123 3122 3118 3113 3106 3103 3101 3100 3099 3096 3093 3090 3085 3081 3076 3072 3066 3061 3056 3051 3046 3042 3042 3044 3047 3050 3051 3054 3057 3059 3060 3064 3068 3074
3133 3132 3131 3131 3131 3130 3129 3127 3123 3122 3121 3121 3119 3118 3106 3104 3101 3098 3098 3096 3093 3089 3085 3080 3074 3070 3066 3060 3054 3050 3045 3041 3039 3041 3045 3046 3050 3052 3053 3058 3059 3064 3067 3072
3130 3130 3130 3130 3129 3129 3128 3127 3121 3120 3120 3121 3119 3119 3107 3104 3103 3099 3096 3094 3092 3089 3084 3080 3075 3069 3066 3059 3053 3049 3045 3040 3037 3038 3041 3044 3046 3049 3053 3056 3060 3063 3065 3068
3128 3128 3128 3128 3128 3128 3127 3125 3123 3124 3123 3123 3118 3117 3106 3103 3100 3098 3096 3094 3091 3088 3084 3079 3073 3068 3063 3059 3052 3049 3045 3041 3037 3038 3039 3042 3045 3047 3052 3055 3057 3059 3061 3065
3126 3126 3126 3127 3128 3128 3126 3126 3126 3133 3129 3120 3116 3111 3106 3104 3100 3097 3095 3094 3091 3089 3084 3080 3074 3069 3064 3059 3053 3049 3046 3043 3039 3038 3039 3040 3044 3049 3051 3053 3055 3056 3058 3063
3126 3125 3125 3125 3125 3127 3125 3126 3127 3125 3124 3122 3112 3108 3106 3103 3100 3096 3094 3093 3091 3088 3085 3081 3075 3070 3065 3059 3053 3050 3047 3045 3042 3040 3043 3042 3044 3047 3049 3052 3055 3056 3056 3059
3124 3125 3123 3123 3124 3125 3124 3126 3125 3125 3128 3128 3112 3108 3105 3103 3100 3097 3094 3092 3091 3089 3086 3082 3076 3071 3066 3061 3055 3051 3050 3047 3045 3044 3043 3045 3045 3046 3048 3052 3054 3055 3057 3060
3122 3124 3123 3122 3122 3121 3122 3122 3123 3124 3124 3124 3125 3108 3105 3103 3100 3097 3095 3093 3091 3090 3087 3083 3078 3072 3067 3062 3057 3052 3052 3050 3048 3045 3044 3043 3044 3045 3047 3049 3052 3056 3060 3062
3120 3120 3119 3120 3119 3119 3119 3119 3121 3122 3122 3121 3120 3107 3103 3103 3101 3098 3096 3094 3091 3089 3087 3084 3080 3074 3069 3064 3060 3056 3051 3051 3052 3050 3048 3045 3044 3045 3045 3047 3051 3054 3059 3063
3117 3117 3117 3115 3117 3115 3115 3117 3118 3119 3119 3116 3117 3104 3102 3101 3101 3098 3095 3093 3091 3089 3088 3085 3081 3077 3072 3068 3062 3058 3056 3051 3049 3049 3049 3048 3046 3044 3045 3047 3048 3052 3057 3062
3113 3114 3114 3113 3113 3113 3114 3115 3115 3115 3114 3110 3102 3098 3100 3101 3099 3097 3094 3092 3091 3089 3087 3086 3083 3079 3075 3071 3067 3063 3059 3057 3054 3052 3051 3051 3049 3050 3048 3047 3049 3052 3056 3059
3111 3108 3109 3109 3109 3108 3108 3109 3110 3107 3107 3103 3096 3093 3092 3095 3094 3092 3090 3089 3088 3087 3085 3085 3084 3081 3078 3074 3071 3068 3066 3062 3060 3058 3056 3054 3052 3051 3050 3050 3051 3052 3055 3059
3106 3104 3104 3103 3104 3104 3101 3102 3101 3099 3098 3093 3092 3085 3090 3089 3088 3088 3087 3087 3086 3085 3084 3084 3084 3083 3079 3077 3075 3072 3069 3067 3065 3062 3059 3057 3055 3053 3052 3052 3053 3053 3056 3059
3102 3101 3100 3098 3099 3098 3094 3091 3091 3090 3089 3089 3085 3083 3082 3084 3084 3085 3086 3085 3084 3083 3083 3083 3083 3083 3082 3079 3077 3076 3074 3072 3070 3068 3066 3064 3063 3060 3058 3057 3056 3056 3057 3059
3095 3097 3097 3096 3096 3095 3086 3085 3086 3085 3084 3083 3080 3080 3080 3080 3080 3082 3083 3084 3083 3082 3082 3081 3082 3082 3082 3081 3079 3077 3076 3075 3074 3073 3071 3070 3067 3066 3064 3063 3062 3061 3062 3063
3089 3090 3092 3092 3090 3083 3082 3082 3081 3079 3077 3077 3075 3077 3076 3075 3075 3078 3080 3080 3081 3081 3081 3080 3080 3081 3081 3081 3081 3079 3077 3076 3075 3074 3073 3072 3071 3070 3068 3067 3066 3066 3066 3066
3081 3083 3087 3086 3086 3081 3077 3076 3075 3074 3072 3073 3073 3072 3072 3072 3072 3076 3076 3077 3077 3079 3079 3079 3079 3079 3080 3080 3080 3080 3079 3078 3077 3076 3075 3073 3072 3071 3071 3070 3069 3069 3069 3069
3072 3074 3076 3077 3076 3069 3075 3073 3072 3073 3074 3070 3070 3070 3069 3068 3070 3072 3072 3074 3075 3076 3077 3077 3078 3077 3078 3078 3079 3079 3079 3078 3077 3077 3077 3075 3074 3073 3073 3073 3073 3072 3071 3071
3062 3065 3065 3071 3070 3064 3064 3063 3065 3066 3066 3066 3065 3066 3067 3066 3066 3067 3069 3071 3072 3074 3075 3075 3076 3076 3076 3076 3077 3077 3078 3078 3077 3076 3077 3077 3076 3075 3075 3074 3074 3074 3074 3074
3050 3052 3054 3054 3052 3057 3059 3060 3060 3059 3060 3060 3062 3062 3062 3063 3064 3065 3067 3068 3070 3071 3072 3073 3073 3074 3075 3075 3075 3075 3076 3077 3077 3076 3075 3075 3075 3075 3076 3075 3075 3075 3074 3074
3037 3043 3042 3045 3044 3051 3055 3057 3058 3057 3057 3057 3058 3059 3060 3060 3062 3063 3064 3065 3067 3069 3069 3070 3071 3071 3072 3072 3073 3074 3074 3074 3074 3074 3073 3073 3072 3073 3074 3074 3074 3073 3073 3073
3030 3034 3031 3031 3037 3043 3045 3050 3053 3052 3052 3054 3055 3055 3056 3058 3059 3059 3060 3061 3063 3064 3065 3066 3067 3068 3068 3068 3068 3069 3070 3070 3070 3070 3070 3070 3069 3069 3069 3070 3070 3071 3070 3071
3018 3022 3023 3023 3031 3034 3039 3043 3044 3044 3046 3047 3047 3049 3050 3051 3053 3053 3055 3056 3057 3058 3060 3061 3062 3063 3063 3063 3064 3064 3064 3065 3065 3065 3066 3066 3066 3065 3065 3065 3065 3066 3065 3065
Wind_Speed
5 5 5 4 4 3 6 12 14 13 18 11 10 5 9 10 14 16 19 20 20 22 25 25 24 25 25 24 21 17 15 14 12 15 15 14 14 15 23 25 15 21 29 26
6 8 5 5 6 6 6 13 14 15 15 13 13 5 7 11 14 14 16 18 19 20 23 27 28 28 26 25 24 19 17 15 14 15 17 16 15 17 19 22 15 30 33 36
7 8 7 6 8 9 8 10 15 20 18 11 16 5 7 12 16 13 15 18 20 22 22 23 25 27 27 26 23 21 18 17 17 17 17 17 17 13 19 23 17 20 27 29
6 5 6 7 9 10 11 7 15 20 16 5 9 7 9 12 20 16 15 17 19 21 22 23 25 27 26 27 24 22 21 19 18 18 14 14 14 12 15 20 15 17 25 34
7 9 8 9 9 9 11 13 11 18 11 12 4 6 5 10 11 16 16 15 18 20 20 21 25 26 27 26 25 22 21 16 11 12 13 12 12 13 17 18 15 14 25 29
8 9 8 7 8 9 11 13 11 8 5 3 5 5 4 7 13 12 13 14 16 20 21 22 23 26 27 27 25 22 20 16 8 7 6 7 6 8 15 14 17 19 19 25
7 9 11 8 7 7 6 10 4 4 3 4 7 9 5 11 12 9 10 12 15 19 22 25 26 27 29 28 26 23 19 17 10 1 6 5 4 6 9 14 12 13 17 24
5 5 3 3 5 7 8 3 1 4 2 5 18 7 5 10 10 8 8 10 13 16 21 25 26 27 27 26 24 21 18 16 12 7 6 2 5 8 8 6 5 9 9 30
3 3 3 7 8 6 2 1 2 4 4 4 5 7 11 8 9 8 8 10 12 16 20 24 26 28 27 25 24 22 17 15 12 5 10 3 4 6 8 7 9 7 12 10
4 6 6 8 8 8 7 4 1 1 2 4 7 10 9 11 11 8 9 10 13 15 18 22 25 27 27 25 23 21 17 15 13 7 4 6 2 7 10 14 12 8 10 14
9 8 7 7 5 7 6 6 4 3 3 4 2 5 7 10 13 12 10 10 12 14 17 20 23 27 27 26 23 21 17 15 14 11 6 1 4 7 11 13 14 13 10 9
7 6 8 10 13 13 12 11 8 5 4 5 4 13 9 9 15 13 12 11 11 11 14 17 20 25 26 26 23 20 20 18 15 13 10 6 2 1 5 8 10 11 11 10
9 7 4 4 6 9 11 8 11 12 10 12 4 9 10 16 26 19 14 12 11 10 10 13 17 22 24 25 24 23 20 20 20 18 15 11 7 5 2 3 6 8 10 13
18 17 14 8 6 10 13 14 13 15 11 15 29 36 26 15 18 21 20 15 12 8 8 10 13 19 22 21 23 23 22 22 21 21 19 15 14 10 7 6 6 8 10 12
15 19 21 20 20 22 23 22 22 26 28 29 36 38 21 21 23 26 24 19 10 4 4 6 8 14 20 21 21 23 24 25 25 23 20 18 16 15 13 9 8 8 9 11
14 22 24 27 25 26 28 25 27 31 34 38 39 40 23 11 14 16 16 12 7 3 1 4 5 9 14 18 18 19 21 24 24 27 28 27 22 17 15 13 9 8 8 10
21 17 14 11 16 14 22 24 19 24 25 26 31 21 14 12 15 13 13 11 9 5 2 1 2 4 7 11 14 15 18 19 21 23 25 26 26 22 16 14 12 9 7 7
24 19 20 11 13 3 16 16 17 20 18 23 23 7 11 11 14 13 12 11 9 7 4 3 2 0 2 5 9 12 14 16 18 18 20 22 24 25 22 16 14 11 8 5
27 24 15 8 11 20 23 21 24 23 24 17 17 18 17 17 19 16 14 11 10 8 7 4 3 3 2 0 2 6 9 11 13 14 16 18 21 21 22 23 19 12 9 8
32 29 26 16 6 6 5 7 8 10 19 7 5 7 15 19 18 12 16 13 10 9 7 6 4 4 4 4 2 1 3 6 8 10 11 13 15 17 18 18 19 17 13 8
31 30 33 32 17 16 25 25 21 17 17 17 16 14 11 10 11 12 14 12 10 9 7 6 5 5 5 5 5 5 3 1 3 5 6 8 9 10 12 13 14 16 15 13
30 22 26 28 15 15 25 33 35 32 27 22 23 19 16 13 15 16 14 11 10 9 8 7 6 5 5 6 6 7 6 5 3 2 2 4 5 5 7 8 8 9 11 11
35 40 32 30 23 16 9 7 6 6 16 22 15 10 8 9 11 12 12 11 11 11 10 9 8 7 6 6 6 5 5 5 6 6 6 6 5 4 3 3 3 3 3 3
36 37 39 38 41 37 29 17 14 7 7 10 10 9 8 7 10 11 12 13 12 12 12 12 11 11 10 10 11 11 10 9 9 9 9 9 9 10 9 8 6 4 4 4
36 33 40 42 39 31 25 25 28 27 23 22 24 24 20 17 15 16 17 16 16 16 14 15 15 13 13 13 13 14 13 13 13 13 12 12 13 13 13 14 13 12 11 11
38 36 34 34 27 28 26 28 31 33 28 27 28 29 29 28 22 24 23 22 20 20 18 15 17 16 18 17 16 16 16 16 16 16 17 16 16 17 15 16 16 17 18 18
Wind_Direction
307 307 320 334 330 311 342 318 324 326 306 313 326 321 346 340 334 348 353 350 345 342 342 343 344 341 336 326 318 310 299 287 280 270 259 260 268 252 218 210 220 209 203 203
293 296 294 302 301 309 347 330 324 326 323 306 316 257 6 341 336 344 349 350 353 351 348 346 349 349 343 334 327 315 296 283 275 266 259 260 260 246 227 191 151 194 186 197
293 297 290 288 296 311 321 336 332 329 325 299 326 282 299 350 338 338 348 351 357 356 355 350 348 351 349 345 337 326 301 272 260 254 253 252 255 249 230 232 216 169 192 206
297 293 286 293 294 304 305 321 328 330 326 304 321 299 291 314 334 344 347 353 358 357 356 355 353 356 352 350 345 336 324 301 271 268 268 255 243 257 250 231 227 212 196 200
291 294 289 289 298 304 308 314 327 321 309 307 295 279 262 300 323 308 335 351 358 359 358 353 353 355 357 352 350 342 341 333 305 274 260 249 249 278 258 204 219 228 219 217
289 289 288 293 291 296 309 313 333 332 313 318 249 273 267 294 326 319 334 352 1 0 357 354 352 354 359 358 355 353 351 349 342 273 241 221 215 252 217 198 216 224 225 219
307 288 283 282 280 297 311 332 320 351 13 230 304 285 275 305 343 351 339 350 360 2 359 356 352 356 359 2 360 360 2 358 8 323 139 125 176 171 210 200 219 224 211 206
286 293 286 278 269 294 312 344 59 225 286 280 294 247 306 318 334 0 351 353 359 1 2 359 356 359 1 3 5 4 6 7 17 57 92 116 135 145 211 188 204 208 201 208
274 259 290 272 286 294 302 302 276 268 292 314 264 292 295 316 335 2 2 358 1 4 3 1 359 2 5 7 8 9 10 14 20 102 84 72 237 224 201 214 205 196 200 212
262 282 282 278 276 265 255 269 280 281 29 315 300 294 277 335 340 357 2 357 4 4 2 4 2 5 9 13 15 12 19 17 22 32 187 160 246 217 201 199 198 165 153 185
265 261 276 284 261 269 259 242 221 234 224 172 296 301 295 321 339 345 355 349 355 2 2 5 5 9 12 15 18 18 26 27 23 24 34 263 248 228 212 208 204 209 207 178
261 271 267 273 273 268 262 256 237 212 213 215 243 280 289 318 334 333 338 342 340 358 5 6 9 13 17 16 22 28 23 29 31 29 43 40 38 209 222 202 193 204 202 184
252 249 262 273 265 252 255 262 248 241 253 243 201 260 295 317 315 316 318 323 329 338 5 10 17 20 23 24 26 33 41 35 31 36 37 47 57 61 78 179 170 184 190 194
246 248 241 249 278 286 283 285 277 247 244 260 258 285 292 303 305 304 301 302 303 320 346 18 29 28 33 36 36 39 41 47 49 42 42 44 54 61 79 102 145 173 179 184
254 256 257 259 265 273 276 275 274 267 275 263 284 284 295 298 291 279 283 284 264 274 332 14 37 41 44 50 50 50 48 46 44 47 51 47 48 51 53 71 109 135 160 177
270 264 265 269 270 276 277 270 268 270 270 271 277 285 297 296 290 285 276 268 261 257 303 359 38 50 58 62 58 54 51 49 48 46 41 38 38 41 47 53 65 101 133 157
264 283 266 272 275 278 280 280 267 271 276 284 279 304 288 265 277 273 270 265 265 263 246 257 15 61 55 65 63 57 55 54 52 51 49 46 42 39 40 46 56 68 98 130
260 274 253 259 278 238 264 270 272 277 286 294 295 291 305 263 257 258 259 260 263 267 262 236 220 135 66 60 70 69 66 61 59 57 56 53 48 45 48 45 43 51 65 82
243 257 253 225 240 271 259 269 271 275 287 310 279 276 279 258 253 248 253 252 256 261 266 251 223 219 228 128 55 71 69 68 64 62 57 53 53 52 49 48 50 49 48 56
237 244 239 224 226 231 230 236 262 271 285 289 292 296 274 269 260 260 249 248 251 243 257 268 246 226 225 237 244 4 63 65 62 57 59 59 57 54 52 52 52 49 48 42
218 226 228 234 240 250 247 257 263 270 269 273 266 298 293 269 252 254 240 246 244 237 241 259 263 246 237 233 236 244 259 17 48 54 53 57 59 60 55 52 53 55 57 57
233 222 220 230 233 264 279 254 251 267 269 268 272 273 266 260 236 226 229 234 237 235 242 251 259 258 251 249 246 248 249 255 263 297 349 9 24 41 51 54 50 50 50 57
230 238 239 238 252 248 297 273 307 268 260 256 257 251 241 235 226 229 225 229 236 240 248 249 256 255 258 256 246 248 269 275 273 263 265 271 286 311 339 7 21 29 51 47
241 239 245 248 255 255 250 243 249 260 309 205 221 215 220 231 233 232 232 239 245 248 252 253 258 257 252 255 265 269 270 270 270 273 273 270 267 270 274 279 283 287 288 277
249 245 246 252 255 257 252 242 248 261 260 262 274 268 273 269 250 239 234 238 242 248 257 262 255 260 254 249 255 267 273 278 277 276 273 272 270 264 265 265 264 264 264 265
247 247 247 259 270 262 263 256 254 250 247 250 264 266 271 268 256 248 240 235 237 244 249 259 258 258 256 250 249 259 268 271 276 281 281 276 275 274 270 267 266 264 262 259